weather.gov     
National Weather Service

Terminal Aerodrome Forecast
NWS Homepage
This page is being discontinued on March 12, 2014.
The same data is available at this site. Please update your bookmarks.
Thank you, and we apologize for the inconvenience.
Please send an email to SR-SRH.Webmaster@noaa.gov with any concerns.


Current Version
Previous Version:    01  02  03  04  05  06  07  08  09  10  11  12  13  14  15  16  17  18  19  20  21  22  23  
[Printable]
514
FTUS45 KRIW 281700
TAFPNA
TAF
KPNA 281720Z 2818/2918 VRB06KT P6SM SCT200 WS020/26030KT
     FM290300 VRB06KT P6SM FEW150 WS018/25040KT
     FM291000 26007KT P6SM VCSH SCT030 BKN050 WS015/25035KT
     FM291700 23015KT P6SM SCT050 WS018/26035KT
      AMD LTD TO CLD VIS AND WIND=


U.S. Dept. of Commerce
NOAA National Weather Service
1325 East West Highway
Silver Spring, MD 20910
E-mail: w-nws.webmaster@noaa.gov
Page last modified: May 16, 2007
NATIONAL WEATHER SERVICE: for Safety, for Work, for Fun - FOR LIFE